sat.trackr.live / text

‹ back to catalog

STARLINK-37517

NORAD 69254 · 2026-117S

PAYLOAD ACTIVE UNKNOWN

§ Identity

Operator
Country
US
Launch date
2026-05-29
Launch site
AFETR
Launch vehicle
Mass (kg)
RCS (m²)

Purposes: comms

External: N2YO · Heavens-Above · Gunter

§ Orbital elements

Epoch: 2026-09-19T23:55:55.705728Z

Period
93.85 min
Inclination
53.1556°
Eccentricity
0.0001277
Mean motion
15.34414434 rev/d
Perigee alt
461.8 km
Apogee alt
463.5 km
Semi-major
6,840.8 km
B*
7.0631e-4
RAAN
155.8068°
Arg perigee
91.4696°
Mean anomaly
268.6452°
Rev number
1,759

§ Raw data

STARLINK-375171 69254U 26117S   26262.99717252  .00023574  00000+0  70631-3 0  99932 69254  53.1556 155.8068 0001277  91.4696 268.6452 15.34414434 17596

JSON: /api/v1/satellites/69254 · /tle

For live sub-satellite position, see the globe view (requires WebGL).

§ Visibility from observer

Set your observer location to see the next 7 days of passes ≥ 10°. The values pass through the URL so the page stays shareable.

No JS? Fill the form by hand. The geolocation button needs JavaScript.